Location: Cutler
(25.6150°N, 80.3110°W)
Time: 01:25:40
(UTC-05:00)

Hubble Space Telescope - Pass Details

Date: 19 November 2017
Orbit: 537 x 541 km, 28.5° (Epoch: 17 November)

Event Time Altitude Azimuth Distance (km) Brightness Sun altitude
Exits shadow 04:19:27 21° 82° (E) 1,230 3.2 -31.9°
Drops below altitude 10° 04:20:54 10° 79° (E) 1,780 4.2 -31.5°
Sets 04:23:10 0° 77° (ENE) 2,672 5.3 -31.0°
